Location: G�rlitz
(51.1670°N, 15.0000°E)
Time: 10:52:15
(UTC+01:00)

ARIANE 6 FM1 Upper Stage - Pass Details

Date: 22 February 2026
Orbit: 523 x 607 km, 62.0° (Epoch: 7 March)

Event Time Altitude Azimuth Distance (km) Brightness Sun altitude
Rises 18:37:42 0° 300° (WNW) 2,659 7.2 -11.6°
Reaches altitude 10° 18:40:44 10° 275° (W) 1,767 6.7 -12.0°
Maximum altitude 18:42:51 14° 243° (WSW) 1,522 5.9 -12.4°
Drops below altitude 10° 18:44:58 10° 210° (SSW) 1,769 5.6 -12.7°
Sets 18:48:00 0° 185° (S) 2,664 6.2 -13.2°
